| time (UTC) | temp C | wind direction | speed KPH | gust KPH | rain 1hr cm | rain 24hr cm | rain mn cm | humidity % | barometer mb |
| 20260503194135 | 14 | 197 | 3.2 | 14.5 | 0.00 | 0.00 | 0.00 | 80 | 1014.7 |
| 20260503193116 | 13 | 186 | 9.7 | 17.7 | 0.00 | 0.00 | 0.00 | 80 | 1014.6 |
| 20260503192117 | 14 | 148 | 4.8 | 11.3 | 0.00 | 0.00 | 0.00 | 79 | 1014.7 |
| 20260503191117 | 15 | 222 | 9.7 | 17.7 | 0.00 | 0.00 | 0.00 | 77 | 1014.7 |
| 20260503190116 | 14 | 205 | 11.3 | 17.7 | 0.00 | 0.00 | 0.00 | 78 | 1014.7 |
| 20260503185116 | 15 | 230 | 12.9 | 16.1 | 0.00 | 0.00 | 0.00 | 76 | 1014.6 |
| 20260503184116 | 15 | 203 | 8.0 | 14.5 | 0.00 | 0.00 | 0.00 | 75 | 1014.5 |
| 20260503183115 | 15 | 224 | 8.0 | 14.5 | 0.00 | 0.00 | 0.00 | 73 | 1014.5 |
| 20260503182136 | 14 | 174 | 8.0 | 11.3 | 0.00 | 0.00 | 0.00 | 72 | 1014.5 |
| 20260503181156 | 14 | 186 | 4.8 | 8.0 | 0.00 | 0.00 | 0.00 | 76 | 1014.4 |
| 20260503180116 | 14 | 259 | 4.8 | 12.9 | 0.00 | 0.00 | 0.00 | 76 | 1014.5 |
| 20260503175116 | 14 | 187 | 6.4 | 11.3 | 0.00 | 0.00 | 0.00 | 78 | 1014.6 |
| 20260503174216 | 14 | 223 | 8.0 | 14.5 | 0.00 | 0.00 | 0.00 | 78 | 1014.5 |
| 20260503173115 | 13 | 184 | 4.8 | 12.9 | 0.00 | 0.00 | 0.00 | 77 | 1014.4 |
| 20260503172116 | 13 | 210 | 11.3 | 16.1 | 0.00 | 0.00 | 0.00 | 72 | 1014.4 |
| 20260503171116 | 13 | 216 | 3.2 | 4.8 | 0.00 | 0.00 | 0.00 | 74 | 1014.3 |
| 20260503170136 | 13 | 297 | 3.2 | 6.4 | 0.00 | 0.00 | 0.00 | 76 | 1014.3 |
| 20260503160116 | 11 | 343 | 4.8 | 6.4 | 0.00 | 0.00 | 0.00 | 90 | 1014.2 |
| 20260503150116 | 11 | 220 | 3.2 | 4.8 | 0.00 | 0.00 | 0.00 | 90 | 1013.9 |
| 20260503140116 | 11 | 0.0 | 0.0 | 0.00 | 0.00 | 0.00 | 90 | 1013.2 | |
| 20260503131156 | 11 | 0.0 | 0.0 | 0.00 | 0.00 | 0.00 | 90 | 1012.5 | |
| 20260503130116 | 11 | 0.0 | 0.0 | 0.00 | 0.00 | 0.00 | 90 | 1012.5 | |
| 20260503120116 | 11 | 298 | 1.6 | 3.2 | 0.00 | 0.00 | 0.00 | 90 | 1012.0 |
| 20260503110116 | 11 | 251 | 1.6 | 3.2 | 0.00 | 0.00 | 0.00 | 87 | 1012.2 |
| 20260503100116 | 11 | 294 | 0.0 | 1.6 | 0.00 | 0.00 | 0.00 | 86 | 1012.0 |
| 20260503090116 | 12 | 298 | 1.6 | 3.2 | 0.00 | 0.00 | 0.00 | 85 | 1012.3 |
| 20260503081136 | 12 | 248 | 1.6 | 4.8 | 0.00 | 0.00 | 0.00 | 86 | 1012.7 |
| 20260503080116 | 12 | 236 | 0.0 | 3.2 | 0.00 | 0.00 | 0.00 | 85 | 1012.7 |
| 20260503072136 | 12 | 248 | 1.6 | 1.6 | 0.00 | 0.00 | 0.00 | 84 | 1012.8 |
| 20260503071115 | 12 | 266 | 1.6 | 4.8 | 0.00 | 0.00 | 0.00 | 83 | 1012.7 |
| 20260503070116 | 12 | 103 | 1.6 | 3.2 | 0.00 | 0.00 | 0.00 | 83 | 1012.8 |
| 20260503060115 | 12 | 0.0 | 1.6 | 0.00 | 0.00 | 0.00 | 82 | 1012.9 | |
| 20260503055116 | 12 | 284 | 0.0 | 1.6 | 0.00 | 0.00 | 0.00 | 82 | 1012.9 |
| 20260503054116 | 12 | 0.0 | 0.0 | 0.00 | 0.00 | 0.00 | 82 | 1013.0 | |
| 20260503053138 | 12 | 99 | 0.0 | 1.6 | 0.00 | 0.00 | 0.00 | 82 | 1013.2 |
| 20260503052118 | 12 | 113 | 1.6 | 3.2 | 0.00 | 0.00 | 0.00 | 82 | 1013.2 |
| 20260503051118 | 13 | 104 | 1.6 | 3.2 | 0.00 | 0.00 | 0.00 | 81 | 1013.2 |
| 20260503050118 | 13 | 108 | 3.2 | 4.8 | 0.00 | 0.00 | 0.00 | 81 | 1013.2 |
| 20260503045118 | 13 | 0.0 | 0.0 | 0.00 | 0.00 | 0.00 | 81 | 1013.2 | |
| 20260503044118 | 13 | 85 | 3.2 | 4.8 | 0.00 | 0.00 | 0.00 | 81 | 1013.1 |
| 20260503043118 | 13 | 119 | 1.6 | 3.2 | 0.00 | 0.00 | 0.00 | 81 | 1012.9 |
| 20260503042118 | 13 | 74 | 3.2 | 9.7 | 0.00 | 0.00 | 0.00 | 81 | 1012.9 |
| 20260503041118 | 13 | 0.0 | 0.0 | 0.00 | 0.00 | 0.00 | 81 | 1012.7 | |
| 20260503040118 | 13 | 58 | 3.2 | 6.4 | 0.00 | 0.00 | 0.00 | 81 | 1012.5 |
| 20260503035118 | 13 | 88 | 3.2 | 4.8 | 0.00 | 0.00 | 0.00 | 82 | 1012.3 |
| 20260503034118 | 13 | 70 | 4.8 | 6.4 | 0.00 | 0.00 | 0.00 | 82 | 1012.1 |
| 20260503033118 | 13 | 59 | 3.2 | 4.8 | 0.00 | 0.00 | 0.00 | 82 | 1012.1 |
| 20260503032118 | 13 | 67 | 3.2 | 6.4 | 0.00 | 0.00 | 0.00 | 82 | 1012.1 |
| 20260503031118 | 13 | 85 | 3.2 | 6.4 | 0.00 | 0.00 | 0.00 | 81 | 1011.9 |
| 20260503030118 | 13 | 74 | 1.6 | 6.4 | 0.00 | 0.00 | 0.00 | 81 | 1012.0 |
| 20260503025118 | 13 | 92 | 4.8 | 8.0 | 0.00 | 0.00 | 0.00 | 80 | 1011.9 |
| 20260503024118 | 13 | 85 | 3.2 | 4.8 | 0.00 | 0.00 | 0.00 | 79 | 1011.9 |
| 20260503023118 | 14 | 95 | 4.8 | 6.4 | 0.00 | 0.00 | 0.00 | 78 | 1011.8 |
| 20260503022138 | 14 | 47 | 3.2 | 11.3 | 0.00 | 0.00 | 0.00 | 77 | 1011.7 |
| 20260503021117 | 14 | 85 | 3.2 | 9.7 | 0.00 | 0.00 | 0.00 | 76 | 1011.6 |
| 20260503020117 | 15 | 105 | 4.8 | 9.7 | 0.00 | 0.00 | 0.00 | 76 | 1011.7 |
| 20260503015117 | 15 | 141 | 4.8 | 11.3 | 0.00 | 0.00 | 0.00 | 75 | 1011.7 |
| 20260503014135 | 15 | 90 | 6.4 | 9.7 | 0.00 | 0.00 | 0.00 | 75 | 1011.8 |
| 20260503013118 | 15 | 101 | 4.8 | 6.4 | 0.00 | 0.00 | 0.00 | 74 | 1011.8 |
| 20260503012118 | 15 | 106 | 3.2 | 9.7 | 0.00 | 0.00 | 0.00 | 73 | 1011.9 |
| 20260503011118 | 16 | 94 | 1.6 | 9.7 | 0.00 | 0.00 | 0.00 | 72 | 1011.8 |
| 20260503010115 | 16 | 125 | 4.8 | 9.7 | 0.00 | 0.00 | 0.00 | 71 | 1011.9 |
| 20260503005118 | 16 | 206 | 3.2 | 6.4 | 0.00 | 0.00 | 0.00 | 71 | 1011.9 |
| 20260503004118 | 16 | 115 | 4.8 | 6.4 | 0.00 | 0.00 | 0.00 | 70 | 1011.8 |
| 20260503003138 | 16 | 159 | 4.8 | 9.7 | 0.00 | 0.00 | 0.00 | 70 | 1012.0 |
| 20260503002118 | 16 | 141 | 4.8 | 14.5 | 0.00 | 0.00 | 0.00 | 69 | 1011.9 |
| 20260503001117 | 16 | 175 | 1.6 | 3.2 | 0.00 | 0.00 | 0.00 | 71 | 1012.0 |
| 20260503000117 | 17 | 162 | 4.8 | 14.5 | 0.00 | 0.00 | 0.00 | 69 | 1011.9 |
| 20260502235118 | 17 | 227 | 4.8 | 11.3 | 0.00 | 0.00 | 0.00 | 69 | 1012.0 |
| 20260502234118 | 17 | 137 | 4.8 | 12.9 | 0.00 | 0.00 | 0.00 | 69 | 1012.2 |
| 20260502233117 | 17 | 219 | 8.0 | 12.9 | 0.00 | 0.00 | 0.00 | 70 | 1012.1 |
| 20260502232118 | 17 | 202 | 6.4 | 9.7 | 0.00 | 0.00 | 0.00 | 71 | 1012.3 |
| 20260502231117 | 17 | 226 | 8.0 | 11.3 | 0.00 | 0.00 | 0.00 | 71 | 1012.6 |
| 20260502230138 | 17 | 157 | 3.2 | 12.9 | 0.00 | 0.00 | 0.00 | 71 | 1012.7 |
| 20260502225117 | 16 | 150 | 4.8 | 9.7 | 0.00 | 0.00 | 0.00 | 72 | 1012.9 |
| 20260502224115 | 16 | 212 | 9.7 | 14.5 | 0.00 | 0.00 | 0.00 | 72 | 1013.1 |
| 20260502223117 | 16 | 188 | 9.7 | 14.5 | 0.00 | 0.00 | 0.00 | 74 | 1013.2 |
| 20260502222118 | 16 | 106 | 6.4 | 14.5 | 0.00 | 0.00 | 0.00 | 73 | 1013.3 |
| 20260502221117 | 16 | 151 | 1.6 | 11.3 | 0.00 | 0.00 | 0.00 | 76 | 1013.5 |
| 20260502220115 | 15 | 234 | 1.6 | 3.2 | 0.00 | 0.00 | 0.00 | 78 | 1013.7 |
| 20260502215117 | 15 | 184 | 6.4 | 8.0 | 0.00 | 0.00 | 0.00 | 78 | 1014.1 |
| 20260502214117 | 15 | 127 | 6.4 | 11.3 | 0.00 | 0.00 | 0.00 | 80 | 1014.2 |
| 20260502213118 | 15 | 173 | 6.4 | 11.3 | 0.00 | 0.00 | 0.00 | 80 | 1014.3 |
| 20260502212136 | 15 | 175 | 6.4 | 14.5 | 0.00 | 0.00 | 0.00 | 81 | 1014.3 |
| 20260502211118 | 14 | 199 | 3.2 | 9.7 | 0.00 | 0.00 | 0.00 | 81 | 1014.3 |
| 20260502210137 | 14 | 202 | 4.8 | 8.0 | 0.00 | 0.00 | 0.00 | 82 | 1014.3 |
| 20260502205137 | 14 | 248 | 1.6 | 4.8 | 0.00 | 0.00 | 0.00 | 82 | 1014.5 |
| 20260502204117 | 14 | 200 | 3.2 | 4.8 | 0.00 | 0.00 | 0.00 | 82 | 1014.7 |
| 20260502203117 | 14 | 120 | 4.8 | 8.0 | 0.00 | 0.00 | 0.00 | 83 | 1015.0 |
| 20260502202115 | 13 | 156 | 6.4 | 8.0 | 0.00 | 0.00 | 0.00 | 83 | 1015.1 |
| 20260502201115 | 13 | 154 | 4.8 | 8.0 | 0.00 | 0.00 | 0.00 | 82 | 1015.2 |
| 20260502200115 | 13 | 164 | 1.6 | 3.2 | 0.00 | 0.00 | 0.00 | 84 | 1015.4 |
| 20260502195115 | 13 | 149 | 3.2 | 6.4 | 0.00 | 0.00 | 0.00 | 84 | 1015.5 |